Zurück zum Katalog

SCOUT A R/B

AktivPO
NORAD 2967·ROCKET BODY·🇺🇸 United States

Gestartet Sep 25, 1967 von Vandenberg Space Force Base

Loading…

Nächste Überflüge (nächste 24 Stunden)

TLE

AktuellSource: Space-Track

Epoche: Sep 14, 2026, 14:09 UTC

1  2967U 67092B   26257.59026801  .00000095  00000-0  12614-3 0  9992
2  2967  89.2628   2.4140 0046107 200.1325 223.2938 13.52406356907014

Verfolge SCOUT A R/B in Echtzeit mit AllMySat

Download on the App Store